Погода в Ныде

Погода в Ныде : погода сейчас, прогноз погоды и архив. Всё, что Вы хотите узнать о погоде в Ныде!

Хотите узнать прогноз погоды в Ныде? Тогда Вам сюда: Погода в Ныде

Поиск расширенной информации на нашем сайте:

Другие новости

Новости СМИ2

Главная страница сайта

Новости сайта

03.07.2017

Напоминаем, что на нашем специализированном сайте Метеоцентр.Азия вы можете получить высокодетализированные автоматические прогнозы погоды по пунктам России, СНГ и мира в авиационном формате (включающие направление и скорость ветра, видимость, явления погоды, количество и форму облачности, нижнюю и верхнюю границу облачности).


Погода в Ныде - сегодня

Время (UTC), дата Ветер
(°,м/с) 
Видим.   Явления Облачность Т
(°С)
Тd
(°С)
f(%) Тe
(°С)
Pmin
(гПа)
dP
(гПа)
Po
(мм)
O2
(г/м3)
Тmin Tmax R s Состояние
почвы
00 16.08.18 080 (В) 10 км    9/8 300 м средняя 
[Sc|Ac trans]
+10 +8.1 88 +10  1009  0.7  756  292           
03 16.08.18 120 (ЮВ) 10 км    9/9 300 м 
[Sc]
+11.3 +8.9 85 +12  1009.2  0.2  756  291  +7.8         
06 16.08.18 030 (СВ) 10 км    9/8 300 м средняя 
[Sc|Ac trans]
+13.9 +8.4 69 +14  1009.2  756  289           
09 16.08.18 030 (СВ) 10 км  в посл. час ливневой дождь  9/6 300 м кучево-дожд., средняя 
[Cb cap|Ac trans]
+12.7 +8 73 +14  1010  0.8  757  290           
12 16.08.18 080 (В) 10 км  {ливн. осадки}  9/8 300 м средняя 
[Sc|Ac trans]
+13.2 +8.5 73 +14  1010  757  289           
18 16.08.18 250 (З) 10 км    9/9 300 м 
[Sc]
+10.5 +9.2 92 +12  1009.3  -0.1  756  292           
21 16.08.18 190 (Ю) 10 км    9/8 300 м средняя 
[Sc|Ac trans]
+9.1 +7.6 90 +9  1008.5  -0.8  756  293           
00 17.08.18 220 (ЮЗ) 4000 м  дымка  8/5 300 м средняя, верхняя 
[Sc|Ac trans|Ci fib]
+7.1 +6.1 93 +7  1009.4  0.9  756  296           
03 17.08.18 270 (З) 10 км    8/4 600 м средняя, верхняя 
[Cu Sc|Ac trans|Ci fib]
+13.1 +8.5 74 +13  1009.3  -0.1  756  289  +7.1         
06 17.08.18 290 (З) 10 км    6/4 600 м средняя 
[Cu Sc|Ac trans]
+14 +7.6 65 +14  1010.3  757  289           
09 17.08.18 310 (СЗ) 20000 м    6/4 600 м кучево-дожд., верхняя 
[Cb cap|Ci fib]
+13.9 +8.5 70 +13  1011.1  0.8  758  289           
12 17.08.18 310 (СЗ) 20000 м    8/4 600 м средняя, верхняя 
[Sc|Ac trans|Ci fib]
+13.2 +8.2 72 +13  1011.4  0.3  758  290           
18 17.08.18 060 (СВ) 10 км  в посл. час ливневой дождь  8/8 300 м кучево-дожд. 
[Cb cap]
+10.5 +8.7 89 +12  1011.9  0.3  758  293           
21 17.08.18 060 (СВ) 10 км  в посл. час ливневой дождь  6/6 300 м кучево-дожд. 
[Cb cap]
+9 +8.1 94 +8  1012.1  0.2  758  294           
00 18.08.18 030 (СВ) 10 км  {ливн. осадки}  9/4 300 м средняя 
[Sc|Ac trans]
+10 +8.8 92 +10  1013.6  1.5  760  294           
03 18.08.18 040 (СВ) 10 км    9/5 300 м средняя 
[Sc|Ac trans]
+11.6 +8.2 80 +12  1014.6  760  292  +8.2    0.9     
06 18.08.18 360 (С) 10 км    8/6 300 м кучево-дожд., средняя 
[Cb cap|Ac trans]
+13.1 +8.8 75 +12  1015.3  0.7  761  291           
09 18.08.18 360 (С) 10 км    6/6 600 м 
[Cu Sc]
+13.9 +9 72 +13  1016.1  0.8  761  290           
12 18.08.18 020 (С) 6{10}  20000 м    3/3 600 м 
[Cu Sc]
+13.3 +7.4 67 +12  1016.7  0.6  762  292           
18 18.08.18 360 (С) 10 км    8/8 300 м 
[Sc]
+11.3 +6.3 71 +10  1017.9  0.4  763  294           
21 18.08.18 010 (С) 10 км    9/9 300 м 
[Sc]
+10.9 +4.9 66 +9  1018.2  0.3  763  295           
00 19.08.18 340 (С) 10 км    8/8 300 м 
[Sc]
+9.7 +3.6 66 +9  1018.4  0.2  763  296           
03 19.08.18 320 (СЗ) 10 км    9/9 300 м 
[Sc]
+10.6 +5.2 69 +11  1018.5  0.1  763  295  +8.5         
06 19.08.18 310 (СЗ) 20000 м    6/6 600 м 
[Sc]
+11.4 +4.8 64 +11               
09 19.08.18 270 (З) 20000 м    5/3 600 м верхняя 
[Sc|Ci sp]
+11.8 +6.4 69 +11               
Время (UTC), дата Ветер
(°,м/с) 
Видим.   Явления Облачность Т
(°С)
Тd
(°С)
f(%) Тe
(°С)
Pmin
(гПа)
dP
(гПа)
Po
(мм)
O2
(г/м3)
Тmin Tmax R s Состояние
почвы

Для получения пояснительной информации подведите курсор к названию столбца.

ПОГОДА в Ныде - архив

Всё, что Вы хотите узнать о погоде в Ныде - удобно и подробно!

Выберите нужную дату (начиная с 1 января 2015* года) и нажмите кнопку "Найти".
Будут отображены архивные сводки погоды по пункту Ныда, начиная с указанной даты.


Отображать данные в формате CSV (для использования в таблицах Excel)


Внимание! Наш архив погоды предназначен исключительно для личного некоммерческого использования в познавательных целях. Если Вам необходимы официальные справки о состоянии погоды (для производственных, юридических, коммерческих и т.п. целей), обращайтесь в органы Росгидромета.

*Примечание: данная дата относится к архиву по метеостанциям СССР (Россия, СНГ, Балтия).
Архив по метеостанциям Зарубежной Европы и Азии (кроме Китая) хранится 10 дней, по другим регионам земного шара (Китай, Африка, Америка, Австралия, Океания) - 1 день.

Ныда - район местоположения метеостанции


Название, широта, долгота, высота метеостанции:
Ныда 66.7°ш. 72.9°д. 10 м над ур. моря [Российская Федерация]

Дополнительная информация

В oтличие oт бoльшинства пoгoдных сайтoв мы публикуем пoдрoбную метеoинфoрмацию в детальнoм прoфессиoнальнoм фoрмате.

Характеристики температуры и влажнoсти вoздуха измеряются на высoте 2 м в тени вдали oт зданий и деревьев.
Скoрoсть ветра измеряется на высoте 10 м (на урoвне рoста челoвека скoрoсть ветра ниже в 1.5-2 раза). Если метеoстанция нахoдится в гoрoде или в лесу, тo скoрoсть ветра занижена на 2-4 м/с пo сравнению с oткрытым местoм. Скoрoсть ветра над акватoриями крупных рек и oзёр, а также на вершинах хoлмoв на 2-5 м/с выше, чем в oбычных услoвиях.
Атмoсфернoе давление в разных тoчках местнoсти мoжет значительнo oтличаться oт давления на метеoстанции, в зависимoсти oт услoвий рельефа (при пoдъёме на 10 м давление пoнижается примернo на 1 мм рт.ст.).